Zurück zum Katalog

COSMOS 1375 DEB

AktivLEO
NORAD 16204·DEBRIS·🇷🇺 Russia

Gestartet Jun 6, 1982 von Plesetsk Cosmodrome

Loading…

Nächste Überflüge (nächste 24 Stunden)

TLE

AktuellSource: Space-Track

Epoche: Sep 14, 2026, 10:30 UTC

1 16204U 82055F   26257.43768899 -.00000067  00000-0  14322-4 0  9999
2 16204  65.8313 244.6494 0015138  61.0210  95.1563 13.80042483 60077

Verfolge COSMOS 1375 DEB in Echtzeit mit AllMySat

Download on the App Store